Wind_Speed
13 13 13 13 13 13 13 13 13 13 13 14 15 14 13 13 11 12 12 9 10 9 8 7 6 9 5 2 6 9 10 9 5 5 6 3 4 2 0 2 4 3 3 6 8 14 13
11 11 12 12 13 13 13 13 13 12 12 13 14 15 17 17 13 12 11 10 8 8 8 8 5 6 2 3 1 12 11 7 5 5 4 5 3 3 1 1 1 2 6 12 11 16 11
11 12 12 12 12 12 13 13 13 12 13 15 15 15 15 14 14 13 12 10 10 9 8 7 5 3 1 9 3 10 10 5 5 4 3 4 4 3 3 2 2 3 8 8 8 4 5
11 11 11 11 12 12 12 12 13 14 14 15 15 17 17 18 18 15 12 10 10 9 8 6 4 3 6 4 5 13 10 6 6 4 4 3 3 3 3 2 3 3 3 5 4 0 3
10 11 12 13 13 13 11 13 14 14 15 17 19 19 18 18 19 19 16 13 10 8 6 4 4 3 7 2 6 16 14 5 6 4 4 3 3 1 2 1 4 4 3 3 8 5 3
11 12 11 13 12 14 13 12 15 15 14 16 19 21 20 20 20 20 17 13 5 2 3 4 3 3 5 4 5 11 14 11 3 3 1 2 2 1 2 4 4 4 4 5 6 4 6
11 12 14 13 14 14 15 12 13 15 16 17 19 21 22 23 23 18 14 3 5 2 3 6 4 3 0 1 6 5 12 8 3 3 4 3 5 12 12 13 2 2 5 11 11 15 9
14 13 14 15 14 15 16 15 14 14 16 16 19 21 23 25 22 8 8 4 3 4 8 10 11 6 5 3 2 3 14 5 5 7 4 3 12 10 8 8 10 10 17 18 10 19 7
17 16 16 18 15 16 16 16 14 14 15 18 20 23 25 25 10 6 5 5 7 5 4 6 4 3 4 6 3 7 10 4 4 7 8 9 4 4 3 7 9 13 15 16 14 7 9
17 18 16 18 17 18 18 17 16 15 15 17 19 21 24 22 2 9 2 9 6 2 3 4 2 1 2 1 4 6 16 5 3 7 8 9 10 9 4 7 8 10 12 19 19 3 3
17 16 16 17 18 19 17 17 16 16 15 15 17 19 21 16 8 3 7 11 5 1 4 3 2 0 2 4 2 2 6 1 6 6 4 6 2 5 7 8 10 10 6 8 12 11 11
18 17 15 15 16 16 16 15 15 17 14 13 16 18 19 9 7 4 12 10 1 4 6 3 1 1 0 3 2 4 5 5 3 6 11 18 3 5 6 4 10 5 5 10 11 5 6
11 14 14 14 15 16 14 15 13 13 12 14 14 16 14 8 6 11 8 3 4 4 5 6 2 1 3 4 3 7 6 7 4 4 5 6 9 7 8 5 2 3 3 4 4 3 6
11 12 14 15 13 14 13 14 13 14 14 13 13 16 7 4 9 7 3 5 3 2 2 4 4 4 5 3 3 5 2 4 13 9 4 4 5 8 9 5 3 6 5 3 6 3 8
10 10 12 14 15 15 13 12 12 10 11 9 12 9 4 4 6 4 4 3 5 4 3 7 9 2 3 2 2 3 5 4 4 14 6 4 5 2 5 1 2 1 4 2 6 16 10
12 11 13 13 14 16 14 15 13 10 7 9 9 7 3 5 4 3 4 5 4 3 4 2 3 1 2 5 5 3 3 3 2 1 3 3 6 5 6 3 3 3 4 3 3 5 5
11 12 12 13 15 16 18 18 14 11 7 8 3 3 2 4 3 4 2 5 6 5 2 2 3 4 4 2 2 2 6 4 2 1 0 3 3 1 4 3 0 3 2 2 3 4 4
11 12 13 15 17 18 17 17 12 11 7 5 2 2 4 4 2 1 2 3 5 5 1 4 1 1 4 3 5 4 5 3 4 2 5 1 2 4 8 14 6 3 4 3 1 4 4
10 11 13 15 16 19 20 17 14 9 6 5 2 2 4 2 1 3 4 5 5 4 3 3 3 6 1 4 4 4 4 4 5 3 3 3 3 4 6 3 3 4 1 3 3 4 8
9 10 13 15 16 17 18 18 14 12 7 3 2 3 1 3 1 1 4 7 5 6 5 4 4 3 3 4 6 6 4 3 5 3 3 5 3 6 7 7 2 8 14 13 3 6 10
8 9 11 12 14 16 18 18 18 8 6 3 3 1 1 4 4 1 2 6 8 6 5 5 3 4 5 4 5 5 6 4 8 7 2 3 4 6 11 12 10 12 14 17 14 13 10
6 9 10 9 9 12 15 17 21 17 4 5 2 2 0 3 2 2 3 3 3 3 4 7 4 10 13 11 11 22 17 7 8 3 3 3 4 2 11 10 11 13 14 12 16 16 10
7 8 9 10 13 15 15 13 15 19 10 5 2 1 0 3 1 3 4 4 10 12 6 4 10 14 12 11 9 14 14 14 10 9 5 3 1 2 9 5 6 6 3 3 3 2 3
6 6 8 9 10 11 11 12 12 11 12 5 2 1 1 4 1 2 6 11 8 7 7 11 6 3 5 7 13 11 15 17 15 16 13 11 7 3 3 2 3 2 2 2 3 8 11
5 7 7 8 9 9 8 8 9 9 7 4 2 2 1 4 4 6 3 4 8 7 5 6 5 4 7 6 5 6 5 5 3 2 4 11 7 3 2 3 5 2 4 3 2 5 11
5 6 9 8 9 9 11 11 10 8 8 5 6 6 2 2 4 4 3 3 4 4 4 5 4 5 3 2 3 3 3 4 5 7 3 1 5 2 2 2 5 1 4 10 8 2 13
5 6 7 8 8 10 11 11 10 9 8 7 6 7 2 2 3 4 2 3 3 3 3 4 6 6 4 2 1 2 4 2 3 3 4 3 2 3 7 5 3 8 16 10 2 3 12
5 7 8 8 9 9 10 10 11 9 8 6 8 8 7 2 6 7 3 3 4 2 3 4 2 3 2 2 1 2 3 3 3 3 2 3 1 2 2 2 4 18 2 5 7 8 9
5 7 8 9 10 10 10 11 12 11 11 9 6 4 5 6 5 15 17 22 19 17 4 1 2 3 2 2 2 2 2 2 2 4 3 4 4 3 3 2 5 6 10 6 8 9 9
Wind_Direction
20 24 25 23 20 19 20 18 19 20 14 9 3 359 354 346 336 333 322 309 301 289 285 286 300 326 342 343 253 159 160 158 147 104 81 80 65 91 101 332 342 223 300 317 297 294 283
18 18 19 19 20 16 15 11 7 9 2 2 357 358 358 356 343 332 323 309 288 274 268 275 289 324 11 287 113 171 180 169 142 119 99 86 123 146 123 259 185 312 292 286 283 277 271
17 14 15 16 10 5 3 4 360 0 360 355 351 354 353 353 348 338 328 318 301 285 271 262 269 290 239 242 189 186 193 184 155 137 112 113 102 112 154 256 240 251 295 279 258 261 263
7 9 4 3 0 360 0 359 352 354 353 352 349 349 350 346 344 337 327 312 301 285 268 257 258 213 248 202 204 190 182 153 160 161 148 165 154 149 174 246 301 245 226 337 292 101 255
357 357 357 355 352 354 353 348 347 350 348 347 351 349 349 347 344 338 327 313 292 277 260 250 247 195 266 203 202 193 192 174 187 193 223 151 106 176 27 78 355 355 257 247 307 263 251
348 350 353 349 351 342 343 347 340 341 342 340 350 350 350 347 342 337 330 322 294 283 223 223 277 2 272 234 181 196 192 163 157 185 189 107 134 185 226 182 224 220 237 220 239 286 217
347 339 344 343 345 337 342 333 336 340 343 342 343 348 349 346 338 335 346 344 6 13 260 209 205 251 193 109 129 164 169 142 142 163 205 195 232 223 204 202 203 357 246 262 267 269 303
343 338 337 337 335 341 331 332 334 338 340 338 344 343 347 343 338 354 12 42 65 269 300 251 248 271 287 231 134 165 162 160 169 205 206 209 245 234 206 202 224 248 271 271 266 265 231
330 329 332 326 328 326 325 328 330 335 335 340 346 346 347 347 353 16 26 40 340 335 276 295 194 195 236 198 252 192 165 170 187 207 204 220 215 94 211 240 223 247 253 270 257 284 244
327 323 321 322 324 313 316 320 324 328 333 338 340 343 344 352 32 345 101 346 344 16 22 269 246 250 143 140 260 198 182 162 231 232 233 255 258 266 283 265 177 252 245 246 261 273 237
325 323 322 322 316 317 313 309 314 323 325 333 329 336 340 348 319 350 328 337 328 123 351 203 222 193 138 181 305 166 185 161 248 202 167 247 229 225 225 231 167 234 198 235 255 245 286
326 327 327 320 324 314 309 312 310 307 313 316 321 330 332 340 341 329 324 327 322 39 263 333 43 263 343 229 243 145 171 247 281 253 231 255 226 240 229 214 193 258 314 263 259 227 243
353 350 349 337 326 324 316 314 310 316 305 306 319 322 325 326 338 334 341 29 23 132 354 330 326 176 218 239 237 202 185 183 218 250 227 279 245 226 208 272 131 113 345 309 342 218 230
3 353 355 357 349 343 342 331 322 310 308 292 305 321 322 323 334 348 8 48 95 235 316 320 309 278 225 160 255 202 250 245 216 218 269 253 314 187 173 227 238 201 183 273 293 269 286
358 358 0 2 355 357 355 336 326 317 325 317 319 316 324 336 344 5 67 40 219 226 273 321 317 316 306 49 268 229 232 243 248 196 215 229 249 248 183 192 173 265 216 237 269 258 263
18 15 11 8 6 5 8 357 349 340 326 322 315 323 350 346 353 44 74 244 263 233 324 2 293 347 305 331 332 31 265 226 264 308 182 345 286 324 309 324 82 137 275 306 273 294 283
26 19 13 12 8 7 8 356 352 10 335 315 325 10 353 344 350 48 159 243 288 279 280 274 261 301 298 292 278 243 271 288 134 117 131 339 257 296 349 280 230 339 69 27 281 272 321
29 26 24 25 21 15 11 358 1 2 352 341 7 333 359 343 347 6 255 221 303 280 55 291 308 251 246 287 264 259 251 243 64 38 301 128 303 275 239 271 179 358 170 161 239 301 278
29 25 25 23 21 17 14 11 20 14 355 341 332 281 13 13 352 322 293 292 269 311 333 310 258 218 74 282 304 276 285 287 183 115 323 358 229 298 325 24 52 237 267 221 278 248 247
31 24 27 24 22 18 13 14 19 24 22 345 56 338 4 55 110 279 321 313 319 342 279 285 280 331 285 258 230 276 266 302 351 269 313 332 228 224 247 254 312 297 308 295 232 275 286
15 17 20 18 15 17 18 16 17 2 22 6 19 311 84 299 327 293 275 288 314 310 354 311 323 233 317 291 296 252 269 315 285 271 177 231 261 241 257 263 264 270 269 285 280 258 262
359 6 6 4 11 17 9 14 18 20 13 66 66 14 193 279 233 278 333 311 289 313 292 295 243 331 310 295 275 285 277 297 265 318 232 223 255 264 278 264 259 267 266 255 264 278 266
12 9 13 19 25 24 18 12 11 22 29 73 34 37 101 280 340 313 329 350 329 323 288 286 303 314 308 293 304 295 271 267 250 259 249 245 243 34 277 274 306 288 240 256 283 92 289
15 9 2 8 16 18 9 8 8 19 24 52 37 18 4 288 300 284 329 307 292 302 287 285 297 255 264 298 294 277 264 261 261 258 246 256 263 222 265 44 265 234 114 56 113 44 33
1 354 352 341 341 343 344 347 2 15 359 4 58 58 22 282 260 310 284 269 299 296 274 265 267 234 316 310 312 343 329 350 300 206 250 237 244 247 250 204 306 44 28 9 324 78 26
340 345 336 343 349 347 350 346 327 336 3 339 304 259 226 280 263 213 264 220 280 298 302 267 300 311 358 290 2 345 289 249 311 332 10 55 229 215 61 168 220 266 339 339 305 189 12
333 341 339 343 352 350 345 344 342 349 334 331 297 273 234 254 269 141 296 298 204 235 248 295 309 342 27 351 293 240 269 212 313 296 332 347 346 260 252 239 295 356 314 310 201 311 356
334 336 335 339 339 333 333 328 330 334 322 308 279 287 231 238 271 214 216 231 278 222 262 275 319 337 352 22 247 309 329 313 295 251 269 276 5 269 304 316 275 347 348 36 332 328 349
334 332 331 336 342 340 339 340 334 312 315 314 252 280 262 246 269 287 272 269 257 260 267 243 231 199 290 308 268 263 289 324 235 302 324 313 4 305 351 40 64 33 68 21 350 334 345
Height
852 849 846 845 843 841 839 836 834 832 829 827 824 821 818 815 812 809 807 804 804 803 802 800 799 798 796 795 789 787 788 789 789 789 789 790 794 798 802 802 801 800 796 793 790 788 786
851 849 847 846 845 842 840 837 833 831 828 825 823 820 817 814 810 807 805 803 801 799 799 799 797 796 796 798 786 787 788 789 789 789 790 790 793 796 800 801 803 799 799 796 788 780 781
853 850 849 847 844 841 839 837 833 830 828 825 822 818 813 809 807 806 804 801 800 799 797 796 796 795 795 790 785 787 787 788 790 791 792 793 795 797 800 803 800 801 803 795 785 781 779
853 851 848 847 845 842 839 836 834 831 827 824 820 818 815 812 808 805 800 798 798 797 796 796 796 795 792 782 783 784 787 789 790 791 792 793 795 796 798 799 799 800 799 799 779 776 774
853 851 849 847 844 842 839 836 833 830 828 824 821 818 814 811 808 805 801 798 795 794 794 795 796 796 790 783 782 782 784 788 790 791 792 793 794 797 799 803 814 810 818 799 786 772 773
853 851 848 846 844 842 839 837 834 830 826 823 821 818 814 811 806 802 798 796 795 795 795 795 796 800 788 782 780 781 783 785 789 790 793 794 797 800 797 800 814 821 809 798 790 773 773
851 850 848 845 842 840 838 835 832 830 828 825 821 817 813 808 805 801 797 795 798 798 798 792 788 787 780 780 781 782 785 786 787 789 796 795 796 794 792 789 788 790 794 793 781 772 777
852 849 846 844 841 840 837 834 831 829 827 823 820 817 812 808 803 800 799 801 804 805 800 785 785 785 782 782 782 783 786 789 789 788 792 792 787 781 783 789 793 793 792 781 776 766 775
850 848 846 843 840 838 835 833 830 828 826 823 820 817 812 805 801 801 801 802 802 801 803 785 781 782 782 783 780 780 784 786 790 788 788 789 773 769 776 781 785 778 779 773 771 763 766
847 845 843 841 838 835 832 830 829 826 824 822 819 815 809 804 803 802 801 801 799 799 811 785 779 778 778 780 782 776 778 782 785 781 779 777 768 770 775 778 780 776 758 763 765 780 762
845 842 840 839 836 833 829 827 825 824 822 820 816 812 809 803 805 804 805 802 800 800 815 777 777 776 775 779 776 775 777 778 778 778 782 766 767 771 779 772 769 767 752 755 754 756 755
843 840 838 835 832 829 827 824 823 821 819 817 814 811 808 807 805 805 803 801 801 814 814 787 780 779 780 777 774 775 775 777 774 774 771 765 760 761 756 752 758 747 755 748 743 743 735
842 840 836 833 831 827 824 823 819 817 817 814 813 810 807 806 806 803 801 802 818 828 779 783 781 780 784 780 775 771 770 773 771 768 766 759 749 749 750 754 751 756 764 756 766 734 732
840 838 836 832 828 826 824 822 819 816 814 813 812 810 808 806 805 803 801 811 834 796 787 779 774 773 777 770 770 770 768 767 766 768 764 756 755 742 740 738 735 744 744 742 726 728 709
838 837 835 832 831 826 823 821 817 814 812 812 811 809 807 807 805 804 809 839 818 798 787 786 780 778 772 771 772 771 767 769 762 761 758 750 748 732 733 729 731 732 738 727 737 717 714
838 837 835 831 828 826 822 820 816 813 813 811 811 808 809 807 806 804 819 809 802 792 786 785 788 779 789 780 776 779 766 755 756 760 761 753 746 741 734 728 728 735 734 737 734 712 700
838 837 834 831 829 825 823 822 818 813 811 809 809 810 809 809 807 813 832 818 801 790 787 788 789 790 791 789 787 777 770 758 756 759 761 759 758 748 740 734 738 737 741 741 744 734 723
839 838 835 832 828 826 823 821 818 815 812 810 810 816 811 810 816 822 820 811 799 793 788 789 788 789 791 786 786 783 769 761 757 761 760 755 759 759 750 729 735 735 742 746 753 748 746
841 839 835 833 830 828 825 822 818 814 814 814 813 814 811 811 832 833 816 809 801 794 790 789 789 786 784 790 785 779 769 760 758 763 763 763 759 759 754 741 749 745 736 736 746 749 741
842 840 837 835 833 829 826 823 819 816 815 814 816 816 813 816 823 821 817 804 807 797 792 790 790 788 791 786 784 777 774 759 759 757 756 764 756 753 758 744 746 744 740 737 747 747 736
844 841 838 835 834 831 829 827 823 820 816 817 820 825 825 833 829 827 820 810 812 815 802 797 794 793 794 788 782 777 774 768 762 757 765 765 760 754 748 749 748 744 743 736 740 740 739
844 841 839 836 833 831 829 829 826 820 818 818 826 825 826 822 819 820 821 815 819 812 809 806 798 796 796 794 793 781 776 775 768 762 761 762 760 752 747 743 743 741 735 738 732 728 730
843 842 840 836 834 832 831 830 829 824 819 820 823 824 825 825 831 819 815 815 812 811 804 802 799 798 795 789 783 780 774 769 766 762 765 759 763 778 752 744 745 752 731 727 728 732 732
843 842 840 837 834 832 831 830 828 825 824 824 825 825 827 830 823 826 820 818 818 813 810 800 798 800 788 784 778 770 765 761 759 756 756 754 756 754 757 765 772 728 730 728 730 739 742
841 841 839 836 833 831 830 829 829 827 826 825 825 824 826 826 820 822 825 819 816 813 810 800 794 792 789 786 781 790 777 770 761 760 760 754 754 751 750 766 748 729 735 737 738 747 756
840 839 838 835 832 830 829 828 827 827 824 824 824 822 822 826 829 814 820 824 820 810 813 801 792 790 789 788 795 808 797 788 773 758 759 755 754 755 779 773 778 741 741 741 741 738 762
839 836 836 834 831 828 827 826 828 825 824 821 821 821 821 822 816 816 816 813 813 809 807 810 801 794 793 807 808 810 798 789 777 778 771 781 767 756 749 742 758 760 762 749 733 767 772
836 836 835 832 830 827 826 824 825 823 821 820 820 819 820 818 811 810 809 811 808 807 804 803 798 805 807 808 798 795 779 785 776 773 761 769 759 761 759 756 755 776 758 757 790 782 782
834 834 833 831 828 825 824 822 822 820 818 817 814 814 815 815 808 805 803 802 803 802 802 798 797 802 794 791 794 788 792 804 792 783 778 769 773 763 764 769 789 794 795 799 798 792 787